EW3230 Weather Reports


time (UTC)temp
C
wind
direction
speed
KPH
gust
KPH
rain 1hr
cm
rain 24hr
cm
rain mn
cm
humidity
%
barometer
mb
20260504160122 20 128 3.2 11.3 0.00 0.00 0.00 39 1010.7
20260504150619 20 248 3.2 12.9 0.00 0.00 0.00 40 1011.0
20260504141119 18 200 3.2 14.5 0.00 0.00 0.00 41 1011.6
20260504140117 18 161 3.2 8.0 0.00 0.00 0.00 43 1011.7
20260504130121 15 239 1.6 9.7 0.00 0.00 0.00 50 1012.1
20260504130115 16 203 0.0 3.2 0.00 0.00 0.00 49 1012.0
20260504120124 12 283 0.0 6.4 0.00 0.00 0.00 63 1012.2
20260504090107 6 280 0.0 0.0 0.00 0.00 0.00 79 1011.9
20260504081552 6 280 0.0 0.0 0.00 0.00 0.00 79 1011.8
20260504080604 5 280 0.0 0.0 0.00 0.03 0.00 80 1011.7
20260504045040 4 278 0.0 1.6 0.00 0.10 0.00 75 1011.3
20260504044039 3 281 0.0 0.0 0.00 0.10 0.00 76 1011.5
20260504043540 3 287 0.0 0.0 0.00 0.10 0.00 78 1011.4
20260504042045 3 288 0.0 0.0 0.00 0.10 0.00 78 1011.4
20260504042039 3 288 0.0 0.0 0.00 0.10 0.00 77 1011.4
20260504040054 3 288 0.0 0.0 0.00 0.13 0.00 78 1011.2
20260504035039 3 288 0.0 0.0 0.00 0.13 0.13 78 1011.1
20260504034038 3 288 0.0 0.0 0.00 0.15 0.13 78 1011.1
20260504033036 3 288 0.0 0.0 0.00 0.15 0.13 78 1011.0
20260504032036 3 288 0.0 0.0 0.00 0.18 0.13 77 1011.0
20260504031037 3 288 0.0 0.0 0.00 0.18 0.13 77 1011.0
20260504030032 3 287 0.0 0.0 0.00 0.18 0.13 76 1011.0
20260504025535 4 288 0.0 0.0 0.00 0.20 0.13 76 1011.0
20260504024033 4 286 0.0 0.0 0.00 0.20 0.13 75 1011.0
20260504023534 4 286 0.0 0.0 0.00 0.20 0.13 75 1010.9
20260504022033 5 287 0.0 0.0 0.00 0.23 0.13 75 1011.0
20260504021033 5 287 0.0 0.0 0.00 0.23 0.13 74 1010.9
20260504020031 5 287 0.0 0.0 0.00 0.23 0.13 71 1010.7
20260504015533 5 286 0.0 0.0 0.00 0.28 0.13 69 1010.7
20260504014030 6 286 0.0 0.0 0.00 0.30 0.13 68 1010.6
20260504013528 6 286 0.0 0.0 0.00 0.36 0.13 67 1010.5
20260504012029 6 287 0.0 0.0 0.00 0.36 0.13 62 1010.4
20260504011024 7 287 0.0 0.0 0.00 0.38 0.13 59 1010.3
20260504010027 7 287 0.0 0.0 0.00 0.38 0.13 58 1010.2
20260504005026 8 287 0.0 0.0 0.00 0.41 0.13 56 1010.0
20260504004025 8 286 0.0 0.0 0.00 0.46 0.13 53 1009.9
20260504003024 9 287 0.0 3.2 0.00 0.48 0.13 51 1009.7
20260504002026 10 276 0.0 1.6 0.00 0.53 0.13 46 1009.5
20260504001027 10 250 1.6 14.5 0.00 0.56 0.13 45 1009.4
20260504000019 10 283 0.0 4.8 0.00 0.58 0.13 45 1009.3
20260503235521 10 250 0.0 11.3 0.00 0.61 0.13 44 1009.2
20260503234020 11 312 1.6 6.4 0.00 0.64 0.13 43 1009.0
20260503233521 11 281 0.0 4.8 0.00 0.64 0.13 43 1008.8
20260503232019 11 301 1.6 11.3 0.00 0.66 0.13 42 1008.5
20260503231034 11 359 1.6 11.3 0.00 0.69 0.13 43 1008.3
20260503231026 11 53 3.2 11.3 0.00 0.69 0.13 42 1008.4
20260503225021 11 311 4.8 14.5 0.00 0.69 0.13 42 1008.0
20260503224019 12 300 3.2 14.5 0.00 0.69 0.13 43 1007.8
20260503223014 12 305 3.2 17.7 0.00 0.69 0.13 42 1007.6
20260503222014 12 273 3.2 11.3 0.00 0.69 0.13 42 1007.6
20260503221017 12 283 3.2 16.1 0.00 0.69 0.13 41 1007.3
20260503220016 12 300 3.2 12.9 0.00 0.69 0.13 41 1007.2
20260503215015 12 359 3.2 17.7 0.00 0.69 0.13 41 1007.0
20260503214013 12 226 1.6 12.9 0.00 0.69 0.13 44 1007.0
20260503213014 12 197 3.2 17.7 0.00 0.69 0.13 43 1006.8
20260503212015 12 319 4.8 24.1 0.00 0.69 0.13 42 1006.7
20260503211515 12 255 1.6 11.3 0.00 0.69 0.13 42 1006.5
20260503210011 12 337 3.2 14.5 0.00 0.69 0.13 45 1006.4
20260503205011 12 309 3.2 9.7 0.00 0.69 0.13 44 1006.4
20260503204012 12 280 3.2 16.1 0.00 0.69 0.13 46 1006.3
20260503203013 12 283 3.2 12.9 0.00 0.69 0.13 46 1006.1
20260503202010 12 295 4.8 12.9 0.00 0.69 0.13 47 1006.1
20260503201013 12 354 3.2 14.5 0.00 0.69 0.13 49 1006.1
20260503200012 12 236 1.6 9.7 0.00 0.69 0.13 50 1006.1
20260503195011 12 274 3.2 8.0 0.00 0.69 0.13 46 1005.9
20260503194010 13 316 3.2 17.7 0.00 0.69 0.13 48 1005.8
20260503193014 12 341 1.6 11.3 0.00 0.69 0.13 52 1005.9
20260503192013 11 294 3.2 12.9 0.00 0.69 0.13 53 1006.0
20260503191012 11 294 3.2 14.5 0.00 0.69 0.13 53 1006.1
20260503190513 11 308 1.6 6.4 0.00 0.69 0.13 53 1006.1
20260503185011 11 276 1.6 11.3 0.00 0.69 0.13 54 1006.1
20260503184017 11 307 1.6 9.7 0.00 0.69 0.13 56 1006.3
20260503184011 11 251 1.6 9.7 0.00 0.69 0.13 55 1006.2
20260503182010 11 43 3.2 12.9 0.00 0.69 0.13 55 1006.2
20260503181007 11 308 3.2 12.9 0.00 0.69 0.13 57 1006.2
20260503180514 11 11 4.8 20.9 0.00 0.69 0.13 58 1006.3
20260503175008 11 270 4.8 17.7 0.00 0.69 0.13 61 1006.2
20260503174007 10 328 4.8 19.3 0.00 0.69 0.13 61 1006.1
20260503173005 10 311 3.2 14.5 0.00 0.69 0.13 63 1006.2
20260503172005 11 290 4.8 16.1 0.00 0.69 0.13 62 1006.1
20260503171507 10 30 6.4 24.1 0.00 0.69 0.13 65 1005.9